Find Starlink 33849

NORAD ID: 63654 Int'l Des: 2025-083 Owner: SPXS Country: US Constellation: starlink operational
LEOCIRCULAR

Live Position

Loading 3D Globe...

About Starlink 33849

Description loading...

Upcoming Passes

Passes for default location (London). Set your location on the main map for personalized predictions.

Altitude History

Loading altitude history...

Two-Line Element Set

1 63654U 25083W 26124.52205363 .00023259 00000-0 85175-3 0 9993
2 63654 43.0041 50.0690 0001340 276.2063 83.8636 15.27592800 58604
Epoch: May 4, 2026 • Age: 23 hours

Current Status

Altitude 482.4 km
Velocity 7.63 km/s
Sub-Earth Point 12.35°N, 179.83°E
Launch Date Apr 25, 2025
Age 1 years
Type internet

Technical Details

Classification Payload
Mass 575.00 kg
Dry Mass 530.00 kg
Total Mass 575.00 kg
Length 0.30 m
Diameter 4.10 m
Span 29.00 m
Shape Box + pan
Manufacturer SPXS
Bus Type Starlink V2MO
Phase Status In Orbit
Owner/State SPXS/US

Most Searched